TimeCDT,TemperatureF,Dew PointF,Humidity,Sea Level PressureIn,VisibilityMPH,Wind Direction,Wind SpeedMPH,Gust SpeedMPH,PrecipitationIn,Events,Conditions,WindDirDegrees,DateUTC
12:12 AM,48.0,29.1,48,30.08,10.0,NNW,9.2,-,N/A,,Clear,340,2014-04-22 05:12:00
12:32 AM,47.3,29.3,50,30.08,10.0,NNW,8.1,-,N/A,,Clear,340,2014-04-22 05:32:00
12:52 AM,46.6,29.3,51,30.08,10.0,NNW,5.8,-,N/A,,Clear,330,2014-04-22 05:52:00
1:12 AM,46.4,29.3,51,30.09,10.0,NNW,4.6,-,N/A,,Clear,330,2014-04-22 06:12:00
1:32 AM,45.5,29.8,54,30.09,10.0,NW,4.6,-,N/A,,Clear,320,2014-04-22 06:32:00
1:52 AM,45.1,30.0,55,30.08,10.0,NW,6.9,-,N/A,,Clear,310,2014-04-22 06:52:00
2:12 AM,45.7,30.0,54,30.09,10.0,NW,6.9,-,N/A,,Clear,320,2014-04-22 07:12:00
2:32 AM,45.9,29.8,54,30.09,10.0,NW,8.1,-,N/A,,Clear,310,2014-04-22 07:32:00
2:52 AM,45.5,30.0,55,30.09,10.0,NW,4.6,-,N/A,,Clear,310,2014-04-22 07:52:00
3:11 AM,45.3,30.2,56,30.09,10.0,NW,5.8,-,N/A,,Clear,310,2014-04-22 08:11:00
3:32 AM,44.6,30.6,58,30.09,10.0,NNW,6.9,-,N/A,,Clear,330,2014-04-22 08:32:00
3:52 AM,44.4,30.7,59,30.10,10.0,NNW,11.5,-,N/A,,Clear,340,2014-04-22 08:52:00
4:12 AM,44.8,30.6,57,30.10,10.0,North,5.8,-,N/A,,Clear,360,2014-04-22 09:12:00
4:32 AM,43.9,30.2,59,30.10,10.0,North,6.9,-,N/A,,Clear,350,2014-04-22 09:32:00
4:52 AM,43.3,30.2,60,30.10,10.0,North,5.8,-,N/A,,Clear,350,2014-04-22 09:52:00
5:12 AM,42.3,30.2,62,30.11,10.0,North,4.6,-,N/A,,Clear,350,2014-04-22 10:12:00
5:32 AM,41.9,30.2,63,30.11,10.0,NNW,4.6,-,N/A,,Clear,340,2014-04-22 10:32:00
5:52 AM,40.6,30.0,66,30.12,10.0,NW,5.8,-,N/A,,Clear,310,2014-04-22 10:52:00
6:12 AM,40.6,29.5,64,30.12,10.0,NW,5.8,-,N/A,,Clear,310,2014-04-22 11:12:00
6:32 AM,40.5,29.3,64,30.12,10.0,NNW,4.6,-,N/A,,Clear,330,2014-04-22 11:32:00
6:52 AM,41.5,28.2,59,30.11,10.0,North,8.1,-,N/A,,Clear,350,2014-04-22 11:52:00
7:12 AM,42.1,28.0,58,30.12,10.0,NNW,8.1,-,N/A,,Clear,330,2014-04-22 12:12:00
7:31 AM,42.8,27.7,55,30.12,10.0,North,8.1,-,N/A,,Clear,350,2014-04-22 12:31:00
7:52 AM,43.7,27.5,53,30.12,10.0,North,9.2,-,N/A,,Clear,350,2014-04-22 12:52:00
8:12 AM,44.4,27.3,51,30.13,10.0,North,8.1,-,N/A,,Clear,360,2014-04-22 13:12:00
8:32 AM,45.0,26.6,49,30.13,10.0,North,11.5,-,N/A,,Clear,360,2014-04-22 13:32:00
8:52 AM,46.4,27.0,47,30.13,10.0,North,12.7,16.1,N/A,,Clear,360,2014-04-22 13:52:00
9:12 AM,47.3,27.5,46,30.13,10.0,North,11.5,-,N/A,,Clear,360,2014-04-22 14:12:00
9:32 AM,47.7,27.0,45,30.13,10.0,NNW,10.4,17.3,N/A,,Clear,330,2014-04-22 14:32:00
9:52 AM,48.6,27.1,43,30.13,10.0,North,12.7,-,N/A,,Clear,360,2014-04-22 14:52:00
10:12 AM,49.1,26.6,42,30.13,10.0,North,11.5,-,N/A,,Clear,350,2014-04-22 15:12:00
10:32 AM,49.8,27.0,41,30.13,10.0,North,12.7,17.3,N/A,,Clear,350,2014-04-22 15:32:00
10:52 AM,50.9,27.1,40,30.12,10.0,North,15.0,20.7,N/A,,Clear,360,2014-04-22 15:52:00
11:11 AM,52.2,27.5,39,30.13,10.0,NNW,12.7,18.4,N/A,,Clear,340,2014-04-22 16:11:00
11:32 AM,52.9,27.7,38,30.13,10.0,North,13.8,20.7,N/A,,Clear,10,2014-04-22 16:32:00
11:52 AM,54.1,27.7,36,30.13,10.0,North,11.5,20.7,N/A,,Clear,360,2014-04-22 16:52:00
12:12 PM,54.5,29.1,38,30.12,10.0,North,11.5,18.4,N/A,,Clear,350,2014-04-22 17:12:00
12:32 PM,55.2,28.9,37,30.11,10.0,North,17.3,21.9,N/A,,Clear,360,2014-04-22 17:32:00
12:52 PM,55.4,28.9,36,30.11,10.0,North,13.8,18.4,N/A,,Clear,360,2014-04-22 17:52:00
1:12 PM,56.8,29.1,35,30.10,10.0,NW,12.7,17.3,N/A,,Clear,320,2014-04-22 18:12:00
1:32 PM,57.2,28.9,34,30.10,10.0,North,17.3,21.9,N/A,,Clear,350,2014-04-22 18:32:00
1:52 PM,57.9,28.4,32,30.09,10.0,NW,10.4,17.3,N/A,,Clear,320,2014-04-22 18:52:00
2:12 PM,57.7,28.2,32,30.09,10.0,North,11.5,17.3,N/A,,Clear,360,2014-04-22 19:12:00
2:32 PM,59.0,28.8,32,30.08,10.0,North,15.0,20.7,N/A,,Clear,360,2014-04-22 19:32:00
2:52 PM,59.2,28.4,31,30.08,10.0,NW,8.1,16.1,N/A,,Clear,320,2014-04-22 19:52:00
3:12 PM,58.5,27.1,30,30.07,10.0,NNW,10.4,18.4,N/A,,Clear,340,2014-04-22 20:12:00
3:32 PM,59.0,27.9,31,30.07,10.0,North,9.2,-,N/A,,Clear,10,2014-04-22 20:32:00
3:52 PM,59.5,25.7,27,30.06,10.0,NNE,12.7,17.3,N/A,,Clear,20,2014-04-22 20:52:00
4:12 PM,59.2,26.1,28,30.06,10.0,North,11.5,17.3,N/A,,Clear,10,2014-04-22 21:12:00
4:32 PM,59.4,25.5,27,30.05,10.0,North,12.7,17.3,N/A,,Clear,360,2014-04-22 21:32:00
4:52 PM,60.3,25.3,26,30.05,10.0,NNW,11.5,19.6,N/A,,Clear,340,2014-04-22 21:52:00
5:12 PM,59.0,24.1,26,30.05,10.0,NNE,8.1,-,N/A,,Clear,20,2014-04-22 22:12:00
5:32 PM,58.3,24.3,27,30.05,10.0,North,6.9,-,N/A,,Clear,350,2014-04-22 22:32:00
5:52 PM,58.6,25.5,28,30.05,10.0,North,6.9,-,N/A,,Clear,360,2014-04-22 22:52:00
6:12 PM,59.0,25.2,27,30.05,10.0,North,10.4,-,N/A,,Clear,360,2014-04-22 23:12:00
6:32 PM,58.8,25.9,28,30.05,10.0,North,6.9,-,N/A,,Clear,10,2014-04-22 23:32:00
6:52 PM,58.1,24.1,27,30.04,10.0,NE,3.5,-,N/A,,Clear,40,2014-04-22 23:52:00
7:12 PM,57.7,24.3,28,30.05,10.0,NE,3.5,-,N/A,,Clear,50,2014-04-23 00:12:00
7:32 PM,57.2,23.5,27,30.05,10.0,NE,4.6,-,N/A,,Clear,40,2014-04-23 00:32:00
7:52 PM,56.7,21.2,25,30.05,10.0,NNE,3.5,-,N/A,,Clear,30,2014-04-23 00:52:00
8:12 PM,55.8,21.9,27,30.05,10.0,Calm,Calm,-,N/A,,Clear,0,2014-04-23 01:12:00
8:32 PM,55.6,22.1,27,30.06,10.0,Calm,Calm,-,N/A,,Clear,0,2014-04-23 01:32:00
8:52 PM,55.0,21.7,27,30.07,10.0,Calm,Calm,-,N/A,,Clear,0,2014-04-23 01:52:00
9:12 PM,53.1,23.5,32,30.08,10.0,Calm,Calm,-,N/A,,Clear,0,2014-04-23 02:12:00
9:32 PM,52.0,23.2,33,30.08,10.0,Calm,Calm,-,N/A,,Clear,0,2014-04-23 02:32:00
9:52 PM,48.9,30.4,49,30.09,10.0,Calm,Calm,-,N/A,,Clear,0,2014-04-23 02:52:00
10:12 PM,48.6,27.9,45,30.09,10.0,Calm,Calm,-,N/A,,Clear,0,2014-04-23 03:12:00
10:32 PM,49.3,27.3,43,30.09,10.0,Calm,Calm,-,N/A,,Clear,0,2014-04-23 03:32:00
10:52 PM,46.9,28.8,49,30.09,10.0,Calm,Calm,-,N/A,,Clear,0,2014-04-23 03:52:00
11:12 PM,47.8,26.4,43,30.09,10.0,East,3.5,-,N/A,,Clear,100,2014-04-23 04:12:00
11:32 PM,46.9,30.7,53,30.08,10.0,Calm,Calm,-,N/A,,Clear,0,2014-04-23 04:32:00
11:52 PM,46.4,29.7,52,30.09,10.0,Calm,Calm,-,N/A,,Clear,0,2014-04-23 04:52:00